| time (UTC) | temp F | wind direction | speed MPH | gust MPH | rain 1hr in | rain 24hr in | rain mn in | humidity % | barometer mb |
| 20260507051517 | 63 | 0.0 | 0.0 | 0.00 | 0.00 | 0.00 | 28 | 1014.6 | |
| 20260507050516 | 64 | 0.0 | 0.0 | 0.00 | 0.00 | 0.00 | 28 | 1014.5 | |
| 20260507045537 | 64 | 0.0 | 0.0 | 0.00 | 0.00 | 0.00 | 28 | 1014.4 | |
| 20260507044518 | 64 | 0.0 | 0.0 | 0.00 | 0.00 | 0.00 | 27 | 1014.5 | |
| 20260507043516 | 65 | 0.0 | 0.0 | 0.00 | 0.00 | 0.00 | 27 | 1014.5 | |
| 20260507042517 | 66 | 0.0 | 0.0 | 0.00 | 0.00 | 0.00 | 27 | 1014.5 | |
| 20260507041516 | 66 | 0.0 | 0.0 | 0.00 | 0.00 | 0.00 | 27 | 1014.5 | |
| 20260507040537 | 66 | 0.0 | 0.0 | 0.00 | 0.00 | 0.00 | 26 | 1014.3 | |
| 20260507035516 | 67 | 0.0 | 0.0 | 0.00 | 0.00 | 0.00 | 26 | 1014.2 | |
| 20260507034516 | 67 | 0.0 | 0.0 | 0.00 | 0.00 | 0.00 | 25 | 1014.1 | |
| 20260507033516 | 68 | 0.0 | 0.0 | 0.00 | 0.00 | 0.00 | 25 | 1014.0 | |
| 20260507032517 | 69 | 0.0 | 0.0 | 0.00 | 0.00 | 0.00 | 24 | 1014.1 | |
| 20260507031539 | 70 | 0.0 | 0.0 | 0.00 | 0.00 | 0.00 | 23 | 1014.0 | |
| 20260507030519 | 71 | 0.0 | 0.0 | 0.00 | 0.00 | 0.00 | 21 | 1014.0 | |
| 20260507025519 | 73 | 0.0 | 0.0 | 0.00 | 0.00 | 0.00 | 20 | 1014.0 | |
| 20260507024517 | 74 | 0.0 | 0.0 | 0.00 | 0.00 | 0.00 | 20 | 1013.9 | |
| 20260507023519 | 75 | 0.0 | 1.0 | 0.00 | 0.00 | 0.00 | 19 | 1014.0 | |
| 20260507022537 | 75 | 0.0 | 3.0 | 0.00 | 0.00 | 0.00 | 19 | 1013.9 | |
| 20260507021516 | 76 | 248 | 2.0 | 4.0 | 0.00 | 0.00 | 0.00 | 18 | 1013.8 |
| 20260507020516 | 77 | 270 | 2.0 | 6.0 | 0.00 | 0.00 | 0.00 | 18 | 1013.9 |
| 20260507015516 | 78 | 270 | 2.0 | 4.0 | 0.00 | 0.00 | 0.00 | 18 | 1013.9 |
| 20260507014516 | 79 | 0.0 | 5.0 | 0.00 | 0.00 | 0.00 | 18 | 1014.0 | |
| 20260507013536 | 79 | 293 | 1.0 | 7.0 | 0.00 | 0.00 | 0.00 | 17 | 1014.0 |
| 20260507012517 | 79 | 293 | 4.0 | 6.0 | 0.00 | 0.00 | 0.00 | 17 | 1014.0 |
| 20260507011516 | 79 | 270 | 3.0 | 8.0 | 0.00 | 0.00 | 0.00 | 17 | 1014.0 |
| 20260507010516 | 80 | 270 | 1.0 | 4.0 | 0.00 | 0.00 | 0.00 | 17 | 1014.0 |
| 20260507005517 | 80 | 338 | 1.0 | 7.0 | 0.00 | 0.00 | 0.00 | 17 | 1013.9 |
| 20260507004536 | 80 | 293 | 2.0 | 6.0 | 0.00 | 0.00 | 0.00 | 17 | 1013.9 |
| 20260507003516 | 80 | 0.0 | 3.0 | 0.00 | 0.00 | 0.00 | 16 | 1013.8 | |
| 20260507002517 | 80 | 293 | 3.0 | 7.0 | 0.00 | 0.00 | 0.00 | 17 | 1013.8 |
| 20260507001517 | 80 | 0.0 | 0.0 | 0.00 | 0.00 | 0.00 | 17 | 1013.7 | |
| 20260507000516 | 80 | 270 | 3.0 | 6.0 | 0.00 | 0.00 | 0.00 | 17 | 1013.7 |
| 20260506235538 | 81 | 293 | 3.0 | 7.0 | 0.00 | 0.00 | 0.00 | 17 | 1013.9 |
| 20260506234517 | 80 | 293 | 4.0 | 8.0 | 0.00 | 0.00 | 0.00 | 17 | 1013.8 |
| 20260506233518 | 81 | 270 | 3.0 | 8.0 | 0.00 | 0.00 | 0.00 | 17 | 1013.8 |
| 20260506232518 | 81 | 0.0 | 0.0 | 0.00 | 0.00 | 0.00 | 16 | 1014.0 | |
| 20260506231516 | 80 | 293 | 4.0 | 8.0 | 0.00 | 0.00 | 0.00 | 17 | 1014.0 |
| 20260506230536 | 80 | 248 | 1.0 | 5.0 | 0.00 | 0.00 | 0.00 | 17 | 1014.1 |
| 20260506225516 | 80 | 270 | 5.0 | 11.0 | 0.00 | 0.00 | 0.00 | 17 | 1014.3 |
| 20260506224516 | 79 | 338 | 1.0 | 4.0 | 0.00 | 0.00 | 0.00 | 18 | 1014.3 |
| 20260506223517 | 80 | 270 | 6.0 | 12.0 | 0.00 | 0.00 | 0.00 | 18 | 1014.4 |
| 20260506222516 | 79 | 270 | 4.0 | 8.0 | 0.00 | 0.00 | 0.00 | 18 | 1014.5 |
| 20260506221536 | 79 | 68 | 6.0 | 13.0 | 0.00 | 0.00 | 0.00 | 19 | 1014.5 |
| 20260506220516 | 80 | 315 | 2.0 | 10.0 | 0.00 | 0.00 | 0.00 | 19 | 1014.8 |
| 20260506215516 | 79 | 293 | 2.0 | 9.0 | 0.00 | 0.00 | 0.00 | 19 | 1015.0 |
| 20260506214516 | 78 | 248 | 4.0 | 10.0 | 0.00 | 0.00 | 0.00 | 20 | 1015.0 |
| 20260506213516 | 79 | 293 | 4.0 | 8.0 | 0.00 | 0.00 | 0.00 | 20 | 1015.2 |
| 20260506212537 | 78 | 0.0 | 0.0 | 0.00 | 0.00 | 0.00 | 20 | 1015.2 | |
| 20260506211516 | 78 | 0.0 | 0.0 | 0.00 | 0.00 | 0.00 | 19 | 1015.4 | |
| 20260506210516 | 78 | 0.0 | 0.0 | 0.00 | 0.00 | 0.00 | 21 | 1015.5 | |
| 20260506205516 | 77 | 0.0 | 0.0 | 0.00 | 0.00 | 0.00 | 21 | 1015.5 | |
| 20260506204517 | 77 | 0.0 | 0.0 | 0.00 | 0.00 | 0.00 | 21 | 1015.6 | |
| 20260506203539 | 77 | 0.0 | 0.0 | 0.00 | 0.00 | 0.00 | 21 | 1015.8 | |
| 20260506202516 | 77 | 0.0 | 0.0 | 0.00 | 0.00 | 0.00 | 21 | 1015.9 | |
| 20260506201516 | 77 | 0.0 | 0.0 | 0.00 | 0.00 | 0.00 | 22 | 1015.9 | |
| 20260506200516 | 77 | 0.0 | 0.0 | 0.00 | 0.00 | 0.00 | 23 | 1016.0 | |
| 20260506195516 | 75 | 0.0 | 0.0 | 0.00 | 0.00 | 0.00 | 24 | 1016.0 | |
| 20260506194536 | 76 | 0.0 | 0.0 | 0.00 | 0.00 | 0.00 | 23 | 1016.2 | |
| 20260506193516 | 75 | 0.0 | 0.0 | 0.00 | 0.00 | 0.00 | 24 | 1016.5 | |
| 20260506192516 | 75 | 0.0 | 0.0 | 0.00 | 0.00 | 0.00 | 25 | 1016.5 | |
| 20260506191516 | 75 | 0.0 | 0.0 | 0.00 | 0.00 | 0.00 | 25 | 1016.7 | |
| 20260506190516 | 74 | 0.0 | 0.0 | 0.00 | 0.00 | 0.00 | 26 | 1016.6 | |
| 20260506185537 | 74 | 23 | 3.0 | 7.0 | 0.00 | 0.00 | 0.00 | 26 | 1016.7 |
| 20260506184516 | 74 | 23 | 3.0 | 8.0 | 0.00 | 0.00 | 0.00 | 26 | 1016.9 |
| 20260506183516 | 74 | 270 | 2.0 | 9.0 | 0.00 | 0.00 | 0.00 | 26 | 1016.9 |
| 20260506182516 | 74 | 0 | 2.0 | 4.0 | 0.00 | 0.00 | 0.00 | 27 | 1017.2 |
| 20260506181516 | 74 | 23 | 2.0 | 7.0 | 0.00 | 0.00 | 0.00 | 26 | 1017.2 |
| 20260506180536 | 72 | 23 | 3.0 | 8.0 | 0.00 | 0.00 | 0.00 | 29 | 1017.1 |
| 20260506175516 | 73 | 270 | 4.0 | 7.0 | 0.00 | 0.00 | 0.00 | 28 | 1017.3 |
| 20260506174516 | 73 | 0 | 1.0 | 4.0 | 0.00 | 0.00 | 0.00 | 28 | 1017.3 |
| 20260506173516 | 72 | 338 | 2.0 | 6.0 | 0.00 | 0.00 | 0.00 | 29 | 1017.2 |
| 20260506172516 | 72 | 338 | 3.0 | 7.0 | 0.00 | 0.00 | 0.00 | 30 | 1017.2 |
| 20260506171536 | 72 | 0.0 | 1.0 | 0.00 | 0.00 | 0.00 | 31 | 1017.2 | |
| 20260506170515 | 71 | 0.0 | 3.0 | 0.00 | 0.00 | 0.00 | 31 | 1017.2 | |
| 20260506165516 | 70 | 270 | 3.0 | 7.0 | 0.00 | 0.00 | 0.00 | 32 | 1017.1 |
| 20260506164517 | 70 | 338 | 2.0 | 5.0 | 0.00 | 0.00 | 0.00 | 32 | 1017.2 |
| 20260506163516 | 69 | 0 | 1.0 | 4.0 | 0.00 | 0.00 | 0.00 | 33 | 1017.2 |
| 20260506162536 | 69 | 338 | 1.0 | 5.0 | 0.00 | 0.00 | 0.00 | 33 | 1017.2 |
| 20260506161516 | 69 | 270 | 1.0 | 4.0 | 0.00 | 0.00 | 0.00 | 34 | 1017.0 |
| 20260506160516 | 68 | 0.0 | 2.0 | 0.00 | 0.00 | 0.00 | 35 | 1017.0 | |
| 20260506155516 | 67 | 270 | 1.0 | 4.0 | 0.00 | 0.00 | 0.00 | 35 | 1017.0 |
| 20260506154516 | 67 | 293 | 1.0 | 4.0 | 0.00 | 0.00 | 0.00 | 36 | 1016.9 |
| 20260506153536 | 67 | 0.0 | 1.0 | 0.00 | 0.00 | 0.00 | 38 | 1016.9 | |
| 20260506152516 | 67 | 270 | 1.0 | 3.0 | 0.00 | 0.00 | 0.00 | 39 | 1016.8 |
| 20260506151515 | 66 | 248 | 1.0 | 5.0 | 0.00 | 0.00 | 0.00 | 39 | 1016.7 |
| 20260506150516 | 65 | 270 | 2.0 | 4.0 | 0.00 | 0.00 | 0.00 | 40 | 1016.6 |
| 20260506145515 | 64 | 248 | 3.0 | 5.0 | 0.00 | 0.00 | 0.00 | 40 | 1016.6 |
| 20260506144539 | 65 | 203 | 1.0 | 6.0 | 0.00 | 0.00 | 0.00 | 41 | 1016.6 |
| 20260506143516 | 65 | 158 | 2.0 | 4.0 | 0.00 | 0.00 | 0.00 | 43 | 1016.6 |
| 20260506142518 | 64 | 158 | 2.0 | 5.0 | 0.00 | 0.00 | 0.00 | 43 | 1016.4 |
| 20260506141516 | 64 | 180 | 2.0 | 4.0 | 0.00 | 0.00 | 0.00 | 45 | 1016.4 |
| 20260506140515 | 62 | 158 | 2.0 | 4.0 | 0.00 | 0.00 | 0.00 | 47 | 1016.2 |
| 20260506135536 | 61 | 158 | 1.0 | 3.0 | 0.00 | 0.00 | 0.00 | 49 | 1016.0 |
| 20260506134515 | 59 | 135 | 2.0 | 5.0 | 0.00 | 0.00 | 0.00 | 50 | 1015.7 |
| 20260506133516 | 57 | 135 | 2.0 | 5.0 | 0.00 | 0.00 | 0.00 | 51 | 1015.6 |
| 20260506132516 | 56 | 135 | 1.0 | 4.0 | 0.00 | 0.00 | 0.00 | 53 | 1015.3 |
| 20260506132018 | 0 | 0.0 | 0.0 | 0.00 | 0.00 | 0.00 | |||
| 20260506131036 | 0 | 0.0 | 0.0 | 0.00 | 0.00 | 0.00 | |||
| 20260506130114 | 0 | 0.0 | 0.0 | 0.00 | 0.00 | 0.00 | |||
| 20260506125607 | 0 | 0.0 | 0.0 | 0.00 | 0.00 | 0.00 | |||
| 20260506125016 | 0 | 0.0 | 0.0 | 0.00 | 0.00 | 0.00 | |||
| 20260506124015 | 0 | 0.0 | 0.0 | 0.00 | 0.00 | 0.00 | |||
| 20260506123548 | 0 | 0.0 | 0.0 | 0.00 | 0.00 | 0.00 | |||
| 20260506123020 | 0 | 0.0 | 0.0 | 0.00 | 0.00 | 0.00 | |||
| 20260506122515 | 0 | 0.0 | 0.0 | 0.00 | 0.00 | 0.00 | |||
| 20260506121516 | 0 | 0.0 | 0.0 | 0.00 | 0.00 | 0.00 | |||
| 20260506121032 | 0 | 0.0 | 0.0 | 0.00 | 0.00 | 0.00 | |||
| 20260506120540 | 0 | 0.0 | 0.0 | 0.00 | 0.00 | 0.00 | |||
| 20260506120016 | 0 | 0.0 | 0.0 | 0.00 | 0.00 | 0.00 | |||
| 20260506115016 | 0 | 0.0 | 0.0 | 0.00 | 0.00 | 0.00 | |||
| 20260506114532 | 0 | 0.0 | 0.0 | 0.00 | 0.00 | 0.00 | |||
| 20260506114024 | 0 | 0.0 | 0.0 | 0.00 | 0.00 | 0.00 | |||
| 20260506113536 | 0 | 0.0 | 0.0 | 0.00 | 0.00 | 0.00 | |||
| 20260506112516 | 0 | 0.0 | 0.0 | 0.00 | 0.00 | 0.00 | |||
| 20260506112026 | 0 | 0.0 | 0.0 | 0.00 | 0.00 | 0.00 | |||
| 20260506111518 | 0 | 0.0 | 0.0 | 0.00 | 0.00 | 0.00 | |||
| 20260506111015 | 0 | 0.0 | 0.0 | 0.00 | 0.00 | 0.00 | |||
| 20260506110036 | 0 | 0.0 | 0.0 | 0.00 | 0.00 | 0.00 | |||
| 20260506105548 | 52 | 0.0 | 0.0 | 0.00 | 0.00 | 0.00 | 58 | 1014.4 | |
| 20260506105040 | 52 | 0.0 | 0.0 | 0.00 | 0.00 | 0.00 | 58 | 1014.4 | |
| 20260506104516 | 51 | 0.0 | 0.0 | 0.00 | 0.00 | 0.00 | 58 | 1014.3 | |
| 20260506103515 | 52 | 0.0 | 2.0 | 0.00 | 0.00 | 0.00 | 58 | 1014.3 | |
| 20260506102536 | 52 | 0.0 | 1.0 | 0.00 | 0.00 | 0.00 | 57 | 1014.1 | |
| 20260506101515 | 53 | 0.0 | 0.0 | 0.00 | 0.00 | 0.00 | 55 | 1014.1 | |
| 20260506100515 | 54 | 0.0 | 0.0 | 0.00 | 0.00 | 0.00 | 53 | 1014.1 | |
| 20260506095516 | 55 | 0.0 | 1.0 | 0.00 | 0.00 | 0.00 | 52 | 1014.1 | |
| 20260506094515 | 54 | 0.0 | 1.0 | 0.00 | 0.01 | 0.00 | 53 | 1013.9 | |
| 20260506093535 | 54 | 0.0 | 0.0 | 0.00 | 0.02 | 0.00 | 53 | 1013.8 | |
| 20260506092515 | 55 | 0.0 | 0.0 | 0.00 | 0.03 | 0.00 | 52 | 1013.9 | |
| 20260506091516 | 55 | 0.0 | 0.0 | 0.00 | 0.03 | 0.00 | 51 | 1013.9 | |
| 20260506090517 | 55 | 0.0 | 0.0 | 0.00 | 0.03 | 0.00 | 51 | 1013.8 | |
| 20260506085515 | 56 | 0.0 | 0.0 | 0.00 | 0.03 | 0.00 | 50 | 1013.7 | |
| 20260506084535 | 56 | 0.0 | 0.0 | 0.00 | 0.03 | 0.00 | 49 | 1013.8 | |
| 20260506083515 | 56 | 0.0 | 1.0 | 0.00 | 0.03 | 0.00 | 49 | 1013.8 | |
| 20260506082515 | 57 | 0.0 | 0.0 | 0.00 | 0.03 | 0.00 | 48 | 1013.8 | |
| 20260506081517 | 57 | 0.0 | 1.0 | 0.00 | 0.04 | 0.00 | 47 | 1013.9 | |
| 20260506080515 | 57 | 0.0 | 0.0 | 0.00 | 0.04 | 0.00 | 47 | 1013.9 | |
| 20260506073515 | 58 | 0.0 | 0.0 | 0.00 | 0.04 | 0.00 | 45 | 1013.9 | |
| 20260506072515 | 58 | 0.0 | 0.0 | 0.00 | 0.04 | 0.00 | 45 | 1013.9 | |
| 20260506071515 | 58 | 0.0 | 0.0 | 0.00 | 0.04 | 0.00 | 44 | 1013.9 | |
| 20260506070536 | 58 | 0.0 | 0.0 | 0.00 | 0.04 | 0.00 | 43 | 1013.7 | |
| 20260506061537 | 62 | 0.0 | 1.0 | 0.00 | 0.04 | 0.04 | 38 | 1013.7 | |
| 20260506060517 | 62 | 0.0 | 1.0 | 0.00 | 0.04 | 0.04 | 38 | 1013.6 |